Погода в Новых Зятцах

Россия / Удмуртская Республика     57°27′35″N   52°34′31″E
темп.,
°C
ветер,
м/с
пор.,
м/с
влажн.,
%
обл.,
%
осадки,
мм/ч
давл.,
гПа
погр.,
м
17 июня, чт
чт1701:00+15ссз4129869 0.9 1008482
04:00+12ссз513930 0.9 1011524
07:00+14ссз410825 0.0 1012520
10:00+18ссз575196 0.0 10131402
13:00+20сз68405 0.0 10142381
16:00+17сз685164 0.0 10151184
19:00+17сз48545 0.0 10161323
22:00+11сз3108112 0.1 1018339
18 июня, пт
пт1801:00+10ссз311805 0.0 1020443
04:00+8ссз311875 0.0 1021438
07:00+11ссз47731 0.0 1023593
10:00+15ссз465623 0.0 10231398
13:00+18ссз564334 0.0 10231924
16:00+19ссз464114 0.0 10232014
19:00+17зсз3653100 0.0 1024908
22:00+12зюз2674100 0.0 1024101
19 июня, сб
сб1901:00+12юз3116878 0.0 1023267
04:00+12зюз31374100 0.0 1023382
07:00+15зюз41367100 0.0 1021450
10:00+22з61055100 0.0 1020872
13:00+26зсз7114481 0.0 10182178
16:00+27зсз611475 0.0 10172270
19:00+25зсз511553 0.0 10161436
22:00+21з413665 0.0 1016469
20 июня, вс
вс2001:00+20зсз41371100 0.0 1017485
04:00+18зсз268057 0.0 1017156
07:00+21сз48710 0.0 1018456
10:00+24ссз58602 0.0 10191201
13:00+26ссз57493 0.0 10191563
16:00+26ссз474710 0.0 10201674
19:00+24с25590 0.0 1020457
22:00+18в22766 0.0 102138
21 июня, пн
пн2101:00+16вюв226654 0.0 102121
04:00+17ююв2462100 0.0 102183
07:00+19ю257156 0.0 1021207
10:00+24ююз3567100 0.0 1020494
13:00+29зюз3540100 0.0 10182718
16:00+28зсз464497 0.0 10181905
19:00+22з238267 1.5 101847
22:00+19зюз22925 1.6 101737